When you browse on this site, cookies collect data to enhance your experience and personalize the content and advertising you see.
Visit our Privacy Policy to learn more. By continuing to use the site, you agree to this use of cookies and data.
  • In Spain
  • List of Countries
  • For 7 days
  • Water Temperature
  • Weather Map
  • Weather Widgets
  • user-avatar
    Login

    Hourly Weather Annaba

    Today, 10 December, Tuesday

    Time Temperature Precipitation Wind Pressure Humidity
    00:00 +12°C° 1.2 mm 7 mps 762 mmHg 83%
    01:00 +11°C° 0 mm 6 mps 762 mmHg 88%
    02:00 +11°C° 1.3 mm 7 mps 762 mmHg 87%
    03:00 +11°C° 1.3 mm 7 mps 761 mmHg 86%
    04:00 +11°C° 1.3 mm 8 mps 761 mmHg 85%
    05:00 +11°C° 0.4 mm 9 mps 761 mmHg 81%
    06:00 +11°C° 0.4 mm 11 mps 761 mmHg 76%
    07:00 +11°C° 0 mm 11 mps 761 mmHg 75%
    08:00 +11°C° 0.2 mm 11 mps 761 mmHg 71%
    09:00 +10°C° 0.2 mm 12 mps 761 mmHg 68%
    10:00 +10°C° 0.2 mm 12 mps 761 mmHg 65%
    11:00 +10°C° 0.3 mm 12 mps 760 mmHg 67%
    12:00 +10°C° 0.3 mm 12 mps 760 mmHg 69%
    13:00 +10°C° 0.3 mm 12 mps 760 mmHg 71%
    14:00 +11°C° 0.9 mm 11 mps 760 mmHg 73%
    15:00 +11°C° 0.9 mm 11 mps 760 mmHg 75%
    16:00 +11°C° 0.9 mm 10 mps 760 mmHg 76%
    17:00 +11°C° 0.8 mm 10 mps 760 mmHg 77%
    18:00 +11°C° 0.8 mm 9 mps 761 mmHg 78%
    19:00 +11°C° 0.8 mm 9 mps 761 mmHg 78%
    20:00 +10°C° 0.8 mm 9 mps 761 mmHg 80%
    21:00 +10°C° 0.8 mm 8 mps 762 mmHg 81%
    22:00 +10°C° 0.8 mm 8 mps 762 mmHg 82%
    23:00 +10°C° 0.7 mm 7 mps 762 mmHg 82%

    Tomorrow, 11 December, Wednesday

    Time Temperature Precipitation Wind Pressure Humidity
    00:00 +10°C° 0.7 mm 7 mps 762 mmHg 82%
    01:00 +10°C° 0.7 mm 6 mps 763 mmHg 81%
    02:00 +10°C° 0.2 mm 6 mps 762 mmHg 82%
    03:00 +10°C° 0.2 mm 6 mps 762 mmHg 82%
    04:00 +9°C° 0.2 mm 5 mps 762 mmHg 83%
    05:00 +9°C° 0.1 mm 5 mps 762 mmHg 84%
    06:00 +9°C° 0.1 mm 5 mps 763 mmHg 85%
    07:00 +9°C° 0.1 mm 5 mps 763 mmHg 86%
    08:00 +10°C° 0.1 mm 5 mps 763 mmHg 83%
    09:00 +11°C° 0.1 mm 6 mps 763 mmHg 79%
    10:00 +13°C° 0.1 mm 6 mps 763 mmHg 75%
    11:00 +13°C° 0.1 mm 6 mps 763 mmHg 73%
    12:00 +14°C° 0.1 mm 7 mps 762 mmHg 71%
    13:00 +14°C° 0.1 mm 7 mps 762 mmHg 69%
    14:00 +14°C° 0 mm 6 mps 761 mmHg 68%
    15:00 +14°C° 0 mm 6 mps 761 mmHg 67%
    16:00 +14°C° 0 mm 5 mps 760 mmHg 66%
    17:00 +13°C° 0 mm 5 mps 760 mmHg 69%
    18:00 +12°C° 0 mm 4 mps 760 mmHg 72%
    19:00 +11°C° 0 mm 4 mps 760 mmHg 75%
    20:00 +11°C° 0 mm 4 mps 760 mmHg 73%
    21:00 +11°C° 0 mm 4 mps 760 mmHg 72%
    22:00 +11°C° 0 mm 4 mps 760 mmHg 70%
    23:00 +12°C° 0.2 mm 5 mps 760 mmHg 71%

    Day after tomorrow, 12 December, Thursday

    Time Temperature Precipitation Wind Pressure Humidity
    00:00 +11°C° 0.2 mm 6 mps 759 mmHg 72%
    01:00 +13°C° 0.2 mm 6 mps 759 mmHg 73%
    02:00 +13°C° 0.5 mm 6 mps 759 mmHg 77%
    03:00 +13°C° 0.5 mm 6 mps 759 mmHg 82%
    04:00 +13°C° 0.5 mm 6 mps 759 mmHg 86%
    05:00 +11°C° 0.4 mm 6 mps 760 mmHg 86%
    06:00 +12°C° 0.4 mm 5 mps 760 mmHg 86%
    07:00 +12°C° 0.4 mm 4 mps 760 mmHg 87%
    08:00 +12°C° 0.1 mm 4 mps 761 mmHg 82%
    09:00 +13°C° 0.1 mm 4 mps 761 mmHg 78%
    10:00 +14°C° 0.1 mm 3 mps 761 mmHg 73%
    11:00 +14°C° 0.2 mm 4 mps 761 mmHg 76%
    12:00 +13°C° 0.2 mm 4 mps 760 mmHg 78%
    13:00 +13°C° 0.2 mm 5 mps 760 mmHg 80%
    14:00 +13°C° 0.2 mm 5 mps 760 mmHg 77%
    15:00 +14°C° 0.2 mm 6 mps 759 mmHg 75%
    16:00 +14°C° 0.2 mm 6 mps 759 mmHg 73%
    17:00 +13°C° 0 mm 6 mps 759 mmHg 74%
    18:00 +13°C° 0 mm 5 mps 759 mmHg 75%
    19:00 +12°C° 0 mm 5 mps 759 mmHg 76%
    20:00 +12°C° 0.2 mm 5 mps 759 mmHg 76%
    21:00 +10°C° 0.2 mm 6 mps 759 mmHg 76%
    22:00 +10°C° 0.2 mm 6 mps 759 mmHg 76%
    23:00 +10°C° 0.2 mm 6 mps 759 mmHg 76%

    13 December, Friday

    Time Temperature Precipitation Wind Pressure Humidity
    00:00 +10°C° 0.2 mm 6 mps 758 mmHg 77%
    01:00 +10°C° 0.2 mm 6 mps 758 mmHg 78%
    02:00 +10°C° 0.2 mm 6 mps 758 mmHg 77%
    03:00 +10°C° 0.2 mm 7 mps 757 mmHg 76%
    04:00 +10°C° 0.2 mm 7 mps 757 mmHg 75%
    05:00 +10°C° 0.1 mm 6 mps 757 mmHg 75%
    06:00 +10°C° 0.1 mm 6 mps 756 mmHg 75%
    07:00 +9°C° 0.1 mm 6 mps 756 mmHg 76%
    08:00 +10°C° 0.2 mm 6 mps 756 mmHg 75%
    09:00 +10°C° 0.2 mm 6 mps 756 mmHg 74%
    10:00 +11°C° 0.2 mm 6 mps 756 mmHg 73%
    11:00 +12°C° 0 mm 7 mps 755 mmHg 73%
    12:00 +14°C° 0 mm 7 mps 754 mmHg 72%
    13:00 +15°C° 0 mm 8 mps 754 mmHg 72%
    14:00 +15°C° 0 mm 8 mps 753 mmHg 73%
    15:00 +15°C° 0 mm 8 mps 753 mmHg 74%
    16:00 +16°C° 0 mm 9 mps 753 mmHg 75%
    17:00 +14°C° 0 mm 10 mps 753 mmHg 76%
    18:00 +14°C° 0 mm 11 mps 753 mmHg 77%
    19:00 +14°C° 0 mm 11 mps 752 mmHg 78%
    20:00 +15°C° 0.1 mm 12 mps 753 mmHg 77%
    21:00 +15°C° 0.1 mm 12 mps 753 mmHg 77%
    22:00 +15°C° 0.1 mm 12 mps 754 mmHg 76%
    23:00 +16°C° 0.2 mm 11 mps 754 mmHg 78%

    14 December, Saturday

    Time Temperature Precipitation Wind Pressure Humidity
    00:00 +14°C° 0.2 mm 10 mps 755 mmHg 81%
    01:00 +15°C° 0.2 mm 9 mps 755 mmHg 83%
    02:00 +15°C° 0.1 mm 8 mps 756 mmHg 84%
    03:00 +15°C° 0.1 mm 7 mps 756 mmHg 85%
    04:00 +15°C° 0.1 mm 6 mps 756 mmHg 86%
    05:00 +14°C° 0.1 mm 6 mps 757 mmHg 86%
    06:00 +14°C° 0.1 mm 6 mps 758 mmHg 87%
    07:00 +14°C° 0.1 mm 6 mps 758 mmHg 87%
    08:00 +15°C° 0.1 mm 7 mps 759 mmHg 85%
    09:00 +16°C° 0.1 mm 7 mps 760 mmHg 82%
    10:00 +16°C° 0.1 mm 8 mps 760 mmHg 80%
    11:00 +17°C° 0.1 mm 9 mps 760 mmHg 78%
    12:00 +17°C° 0.1 mm 9 mps 760 mmHg 76%
    13:00 +17°C° 0.1 mm 10 mps 760 mmHg 74%
    14:00 +17°C° 0 mm 9 mps 761 mmHg 74%
    15:00 +17°C° 0 mm 9 mps 761 mmHg 75%
    16:00 +16°C° 0 mm 8 mps 761 mmHg 76%
    17:00 +16°C° 0 mm 7 mps 762 mmHg 80%
    18:00 +15°C° 0 mm 6 mps 762 mmHg 85%
    19:00 +14°C° 0 mm 5 mps 763 mmHg 89%
    20:00 +14°C° 0 mm 4 mps 763 mmHg 89%
    21:00 +13°C° 0 mm 4 mps 763 mmHg 88%
    22:00 +13°C° 0 mm 3 mps 763 mmHg 87%
    23:00 +13°C° 0 mm 3 mps 763 mmHg 85%

    15 December, Sunday

    Time Temperature Precipitation Wind Pressure Humidity
    00:00 +14°C° 0 mm 2 mps 763 mmHg 83%
    01:00 +13°C° 0 mm 2 mps 763 mmHg 81%
    02:00 +13°C° 0 mm 2 mps 763 mmHg 80%
    03:00 +13°C° 0 mm 2 mps 763 mmHg 78%
    04:00 +13°C° 0 mm 1 mps 763 mmHg 77%
    05:00 +13°C° 0 mm 1 mps 763 mmHg 76%
    06:00 +12°C° 0 mm 1 mps 763 mmHg 74%
    07:00 +12°C° 0 mm 1 mps 763 mmHg 73%
    08:00 +14°C° 0 mm 1 mps 763 mmHg 69%
    09:00 +15°C° 0 mm 1 mps 763 mmHg 65%
    10:00 +16°C° 0 mm 1 mps 763 mmHg 60%
    11:00 +18°C° 0 mm 1 mps 763 mmHg 57%
    12:00 +20°C° 0 mm 1 mps 763 mmHg 54%
    13:00 +19°C° 0 mm 0 mps 762 mmHg 50%
    14:00 +20°C° 0 mm 1 mps 762 mmHg 55%
    15:00 +20°C° 0 mm 1 mps 762 mmHg 59%
    16:00 +18°C° 0 mm 2 mps 762 mmHg 64%
    17:00 +17°C° 0 mm 2 mps 762 mmHg 67%
    18:00 +16°C° 0 mm 2 mps 762 mmHg 70%
    19:00 +15°C° 0 mm 2 mps 762 mmHg 73%
    20:00 +15°C° 0 mm 2 mps 762 mmHg 72%
    21:00 +15°C° 0 mm 2 mps 762 mmHg 71%
    22:00 +15°C° 0 mm 2 mps 762 mmHg 70%
    23:00 +15°C° 0 mm 2 mps 762 mmHg 69%
    Show more